Weather History for Wendover, UT

Change the Weather History Date:

Wednesday, December 5, 2012

  Actual Average Record
Temperature  
Mean Temperature 38 °F -  
Max Temperature 44 °F 38 °F 53 °F (1938)
Min Temperature 32 °F 23 °F 8 °F (2006)
Degree Days  
Heating Degree Days 27    
Moisture  
Dew Point 31 °F    
Average Humidity 73    
Maximum Humidity 81    
Minimum Humidity 66    
Precipitation  
Precipitation 0.00 in - - ()
Sea Level Pressure  
Sea Level Pressure 30.12 in    
Wind  
Wind Speed 2 mph (East)    
Max Wind Speed 8 mph    
Max Gust Speed -    
Visibility 10 miles    
Events      
Averages and records for this station are not official NWS values.
T = Trace of Precipitation, MM = Missing Value Source: NWS Daily Summary

Daily Weather History Graph

Daily Weather History Graph

Search for Another Location

Airport:

Trip Planner

Search our weather history database for the weather conditions in past years. The results will help you decide how hot, cold, wet, or windy it might be!

Date:

Astronomy

Dec. 05, 2012 Rise Set
Actual Time 7:45 AM MST 5:08 PM MST
Civil Twilight 7:14 AM MST 5:39 PM MST
Nautical Twilight 6:40 AM MST 6:13 PM MST
Astronomical Twilight 6:07 AM MST 6:46 PM MST
Moon No Moon Rise 12:09 PM MST (12/5)
Length of Visible Light 10h 24m
Length of Day
9h 23m
Waning Gibbous, 59% of the Moon is Illuminated
Dec 5
Waning Gibbous
Dec 6
Last Quarter
Dec 13
New
Dec 19
First Quarter
Dec 28
Full

Hourly Weather History & Observations

Time (MST) Temp. Windchill Dew Point Humidity Pressure Visibility Wind Dir Wind Speed Gust Speed Precip Events Conditions
12:15 AM 35.6 °F - 28.4 °F 75% 30.21 in 10.0 mi Calm Calm - N/A   Scattered Clouds
12:35 AM 35.6 °F - 26.6 °F 70% 30.19 in 10.0 mi Calm Calm - N/A   Mostly Cloudy
12:55 AM 35.6 °F 31.7 °F 26.6 °F 70% 30.19 in 10.0 mi NNE 4.6 mph - N/A   Mostly Cloudy
1:15 AM 35.6 °F 32.8 °F 26.6 °F 70% 30.18 in 10.0 mi NNW 3.5 mph - N/A   Mostly Cloudy
1:35 AM 35.6 °F - 26.6 °F 70% 30.18 in 10.0 mi Calm Calm - N/A   Partly Cloudy
1:55 AM 35.6 °F - 26.6 °F 70% 30.17 in 10.0 mi Calm Calm - N/A   Partly Cloudy
2:15 AM 35.6 °F - 26.6 °F 70% 30.17 in 10.0 mi Calm Calm - N/A   Scattered Clouds
2:35 AM 33.8 °F - 26.6 °F 75% 30.17 in 10.0 mi Calm Calm - N/A   Scattered Clouds
2:55 AM 33.8 °F 30.8 °F 26.6 °F 75% 30.17 in 10.0 mi SW 3.5 mph - N/A   Partly Cloudy
3:15 AM 33.8 °F - 26.6 °F 75% 30.16 in 10.0 mi Calm Calm - N/A   Clear
3:35 AM 33.8 °F - 26.6 °F 75% 30.16 in 10.0 mi Calm Calm - N/A   Clear
3:55 AM 33.8 °F 29.6 °F 24.8 °F 70% 30.15 in 10.0 mi WNW 4.6 mph - N/A   Partly Cloudy
4:15 AM 32.0 °F - 24.8 °F 75% 30.13 in 10.0 mi Calm Calm - N/A   Scattered Clouds
4:35 AM 33.8 °F 29.6 °F 24.8 °F 70% 30.13 in 10.0 mi NNE 4.6 mph - N/A   Clear
4:55 AM 33.8 °F 29.6 °F 26.6 °F 75% 30.12 in 10.0 mi North 4.6 mph - N/A   Clear
5:15 AM 35.6 °F - 28.4 °F 75% 30.12 in 10.0 mi Calm Calm - N/A   Scattered Clouds
5:35 AM 33.8 °F - 26.6 °F 75% 30.12 in 10.0 mi Calm Calm - N/A   Partly Cloudy
5:55 AM 33.8 °F - 26.6 °F 75% 30.11 in 10.0 mi Calm Calm - N/A   Scattered Clouds
7:35 AM 35.6 °F 32.8 °F 28.4 °F 75% 30.11 in 10.0 mi ENE 3.5 mph - N/A   Mostly Cloudy
7:55 AM 35.6 °F 30.7 °F 28.4 °F 75% 30.11 in 10.0 mi NE 5.8 mph - N/A   Partly Cloudy
8:15 AM 35.6 °F 31.7 °F 28.4 °F 75% 30.12 in 10.0 mi East 4.6 mph - N/A   Clear
8:35 AM 35.6 °F 31.7 °F 28.4 °F 75% 30.12 in 10.0 mi ESE 4.6 mph - N/A   Scattered Clouds
8:55 AM 37.4 °F 33.8 °F 28.4 °F 70% 30.12 in 10.0 mi East 4.6 mph - N/A   Clear
9:15 AM 37.4 °F 32.1 °F 28.4 °F 70% 30.13 in 10.0 mi NE 6.9 mph - N/A   Clear
9:35 AM 37.4 °F 31.4 °F 30.2 °F 75% 30.12 in 10.0 mi ENE 8.1 mph - N/A   Clear
9:55 AM 37.4 °F 32.8 °F 30.2 °F 75% 30.13 in 10.0 mi ENE 5.8 mph - N/A   Partly Cloudy
10:15 AM 39.2 °F - 30.2 °F 70% 30.14 in 10.0 mi Calm Calm - N/A   Clear
10:35 AM 41.0 °F 37.1 °F 32.0 °F 70% 30.15 in 10.0 mi East 5.8 mph - N/A   Mostly Cloudy
10:55 AM 41.0 °F 38.0 °F 33.8 °F 76% 30.14 in 10.0 mi East 4.6 mph - N/A   Mostly Cloudy
11:15 AM 42.8 °F 40.1 °F 33.8 °F 70% 30.14 in 10.0 mi SE 4.6 mph - N/A   Scattered Clouds
11:35 AM 42.8 °F 39.3 °F 33.8 °F 70% 30.13 in 10.0 mi ESE 5.8 mph - N/A   Partly Cloudy
11:55 AM 42.8 °F 41.1 °F 33.8 °F 70% 30.13 in 10.0 mi SSE 3.5 mph - N/A   Clear
12:15 PM 42.8 °F 40.1 °F 33.8 °F 70% 30.12 in 10.0 mi East 4.6 mph - N/A   Clear
12:55 PM 42.8 °F 41.1 °F 33.8 °F 70% 30.12 in 10.0 mi ENE 3.5 mph - N/A   Partly Cloudy
1:15 PM 42.8 °F - 35.6 °F 76% 30.12 in 10.0 mi Calm Calm - N/A   Clear
1:35 PM 44.6 °F 43.1 °F 35.6 °F 71% 30.12 in 10.0 mi SSE 3.5 mph - N/A   Scattered Clouds
1:55 PM 44.6 °F - 33.8 °F 66% 30.12 in 10.0 mi Calm Calm - N/A   Scattered Clouds
2:15 PM 42.8 °F 41.1 °F 33.8 °F 70% 30.11 in 10.0 mi SSW 3.5 mph - N/A   Mostly Cloudy
2:35 PM 44.6 °F 42.2 °F 35.6 °F 71% 30.10 in 10.0 mi SW 4.6 mph - N/A   Mostly Cloudy
2:55 PM 44.6 °F 42.2 °F 35.6 °F 71% 30.10 in 10.0 mi SSW 4.6 mph - N/A   Partly Cloudy
3:15 PM 44.6 °F 41.4 °F 35.6 °F 71% 30.10 in 10.0 mi SW 5.8 mph - N/A   Partly Cloudy
3:35 PM 44.6 °F - 35.6 °F 71% 30.09 in 10.0 mi Calm Calm - N/A   Mostly Cloudy
3:55 PM 44.6 °F 42.2 °F 35.6 °F 71% 30.10 in 10.0 mi South 4.6 mph - N/A   Mostly Cloudy
4:15 PM 44.6 °F - 35.6 °F 71% 30.09 in 10.0 mi Calm Calm - N/A   Overcast
4:35 PM 44.6 °F 41.4 °F 33.8 °F 66% 30.09 in 10.0 mi ESE 5.8 mph - N/A   Scattered Clouds
4:55 PM 42.8 °F 40.1 °F 33.8 °F 70% 30.09 in 10.0 mi SSE 4.6 mph - N/A   Clear
5:15 PM 42.8 °F 39.3 °F 33.8 °F 70% 30.10 in 10.0 mi NW 5.8 mph - N/A   Clear
5:35 PM 42.8 °F - 33.8 °F 70% 30.10 in 10.0 mi Calm Calm - N/A   Clear
5:55 PM 41.0 °F 39.0 °F 32.0 °F 70% 30.10 in 10.0 mi East 3.5 mph - N/A   Clear
6:15 PM 39.2 °F 37.0 °F 32.0 °F 75% 30.10 in 10.0 mi SE 3.5 mph - N/A   Clear
6:35 PM 39.2 °F - 32.0 °F 75% 30.10 in 10.0 mi Calm Calm - N/A   Clear
6:55 PM 39.2 °F 37.0 °F 30.2 °F 70% 30.10 in 10.0 mi WNW 3.5 mph - N/A   Clear
7:15 PM 39.2 °F - 32.0 °F 75% 30.11 in 10.0 mi Calm Calm - N/A   Partly Cloudy
7:35 PM 37.4 °F - 30.2 °F 75% 30.11 in 10.0 mi Calm Calm - N/A   Partly Cloudy
7:55 PM 39.2 °F - 30.2 °F 70% 30.11 in 10.0 mi Calm Calm - N/A   Scattered Clouds
8:15 PM 39.2 °F 37.0 °F 30.2 °F 70% 30.10 in 10.0 mi WNW 3.5 mph - N/A   Partly Cloudy
8:35 PM 37.4 °F - 30.2 °F 75% 30.10 in 10.0 mi Calm Calm - N/A   Scattered Clouds
8:55 PM 37.4 °F 34.9 °F 30.2 °F 75% 30.10 in 10.0 mi NNW 3.5 mph - N/A   Mostly Cloudy
9:15 PM 39.2 °F 37.0 °F 33.8 °F 81% 30.10 in 10.0 mi WNW 3.5 mph - N/A   Mostly Cloudy
9:55 PM 39.2 °F 35.9 °F 33.8 °F 81% 30.10 in 10.0 mi East 4.6 mph - N/A   Scattered Clouds
10:15 PM 37.4 °F 34.9 °F 30.2 °F 75% 30.10 in 10.0 mi NE 3.5 mph - N/A   Clear
10:35 PM 37.4 °F 33.8 °F 30.2 °F 75% 30.10 in 10.0 mi East 4.6 mph - N/A   Clear
10:55 PM 37.4 °F - 30.2 °F 75% 30.10 in 10.0 mi Calm Calm - N/A   Clear
11:15 PM 37.4 °F - 30.2 °F 75% 30.10 in 10.0 mi Calm Calm - N/A   Clear
11:35 PM 37.4 °F - 30.2 °F 75% 30.10 in 10.0 mi Calm Calm - N/A   Clear
11:55 PM 33.8 °F 27.0 °F 28.4 °F 81% 30.10 in 10.0 mi West 8.1 mph - N/A   Partly Cloudy